Time,TemperatureF,DewpointF,PressureIn,WindDirection,WindDirectionDegrees,WindSpeedMPH,WindSpeedGustMPH,Humidity,HourlyPrecipIn,Conditions,Clouds,dailyrainin,SoftwareType,DateUTC
2013-03-13 00:20:00,54.0,-99.9,-100.00,West,276,7.0,11.0,-999,-99.99,,,-99.99,,2013-03-13 07:20:00,
2013-03-13 00:53:00,54.0,-99.9,-100.00,WNW,286,6.0,10.0,-999,-99.99,,,-99.99,,2013-03-13 07:53:00,
2013-03-13 01:04:00,54.0,-99.9,-100.00,West,276,7.0,11.0,-999,-99.99,,,-99.99,,2013-03-13 08:04:00,
2013-03-13 01:12:00,54.0,-99.9,-100.00,West,276,7.0,11.0,-999,-99.99,,,-99.99,,2013-03-13 08:12:00,
2013-03-13 01:30:00,52.0,-99.9,-100.00,WSW,258,9.0,13.0,-999,-99.99,,,-99.99,,2013-03-13 08:30:00,
2013-03-13 02:02:00,52.0,-99.9,-100.00,WSW,258,9.0,13.0,-999,-99.99,,,-99.99,,2013-03-13 09:02:00,
2013-03-13 02:13:00,52.0,-99.9,-100.00,WSW,258,9.0,13.0,-999,-99.99,,,-99.99,,2013-03-13 09:13:00,
2013-03-13 02:20:00,52.0,-99.9,-100.00,West,272,8.0,12.0,-999,-99.99,,,-99.99,,2013-03-13 09:20:00,
2013-03-13 02:23:00,52.0,-99.9,-100.00,WSW,258,9.0,13.0,-999,-99.99,,,-99.99,,2013-03-13 09:23:00,
2013-03-13 03:02:00,52.0,-99.9,-100.00,West,272,8.0,12.0,-999,-99.99,,,-99.99,,2013-03-13 10:02:00,
2013-03-13 03:12:00,52.0,-99.9,-100.00,West,272,8.0,12.0,-999,-99.99,,,-99.99,,2013-03-13 10:12:00,
2013-03-13 04:53:00,52.0,-99.9,-100.00,West,266,8.0,13.0,-999,-99.99,,,-99.99,,2013-03-13 11:53:00,
2013-03-13 05:22:00,51.0,-99.9,-100.00,West,263,8.0,13.0,-999,-99.99,,,-99.99,,2013-03-13 12:22:00,
2013-03-13 05:33:00,51.0,-99.9,-100.00,West,263,8.0,13.0,-999,-99.99,,,-99.99,,2013-03-13 12:33:00,
2013-03-13 10:03:00,68.0,-99.9,-100.00,NNW,346,4.0,4.0,-999,-99.99,,,-99.99,,2013-03-13 17:03:00,
2013-03-13 10:23:00,68.0,-99.9,-100.00,North,357,6.0,8.0,-999,-99.99,,,-99.99,,2013-03-13 17:23:00,
2013-03-13 12:03:00,73.0,-99.9,-100.00,NNE,31,4.0,10.0,-999,-99.99,,,-99.99,,2013-03-13 19:03:00,
2013-03-13 12:13:00,73.0,-99.9,-100.00,NNE,31,4.0,10.0,-999,-99.99,,,-99.99,,2013-03-13 19:13:00,
2013-03-13 12:23:00,74.0,-99.9,-100.00,NE,48,6.0,9.0,-999,-99.99,,,-99.99,,2013-03-13 19:23:00,
2013-03-13 12:32:00,74.0,-99.9,-100.00,NE,48,6.0,9.0,-999,-99.99,,,-99.99,,2013-03-13 19:32:00,
2013-03-13 13:02:00,75.0,-99.9,-100.00,NE,36,7.0,9.0,-999,-99.99,,,-99.99,,2013-03-13 20:02:00,
2013-03-13 13:13:00,75.0,-99.9,-100.00,NE,36,7.0,9.0,-999,-99.99,,,-99.99,,2013-03-13 20:13:00,
2013-03-13 14:10:00,79.0,-99.9,-100.00,ENE,62,4.0,7.0,-999,-99.99,,,-99.99,,2013-03-13 21:10:00,
2013-03-13 14:52:00,79.0,-99.9,-100.00,ENE,62,4.0,7.0,-999,-99.99,,,-99.99,,2013-03-13 21:52:00,
2013-03-13 15:02:00,79.0,-99.9,-100.00,ENE,62,4.0,7.0,-999,-99.99,,,-99.99,,2013-03-13 22:02:00,
2013-03-13 15:53:00,82.0,-99.9,-100.00,ESE,113,6.0,9.0,-999,-99.99,,,-99.99,,2013-03-13 22:53:00,
2013-03-13 16:02:00,82.0,-99.9,-100.00,East,88,1.0,9.0,-999,-99.99,,,-99.99,,2013-03-13 23:02:00,
2013-03-13 17:40:00,81.0,-99.9,-100.00,East,84,2.0,5.0,-999,-99.99,,,-99.99,,2013-03-14 00:40:00,
2013-03-13 17:53:00,82.0,-99.9,-100.00,East,98,3.0,6.0,-999,-99.99,,,-99.99,,2013-03-14 00:53:00,
2013-03-13 18:03:00,82.0,-99.9,-100.00,East,98,3.0,6.0,-999,-99.99,,,-99.99,,2013-03-14 01:03:00,
2013-03-13 18:23:00,81.0,-99.9,-100.00,East,84,2.0,5.0,-999,-99.99,,,-99.99,,2013-03-14 01:23:00,
2013-03-13 18:33:00,81.0,-99.9,-100.00,East,84,2.0,5.0,-999,-99.99,,,-99.99,,2013-03-14 01:33:00,
2013-03-13 19:02:00,82.0,-99.9,-100.00,SE,126,0.0,3.0,-999,-99.99,,,-99.99,,2013-03-14 02:02:00,
2013-03-13 20:02:00,68.0,-99.9,-100.00,West,275,8.0,8.0,-999,-99.99,,,-99.99,,2013-03-14 03:02:00,
2013-03-13 20:12:00,68.0,-99.9,-100.00,West,275,8.0,8.0,-999,-99.99,,,-99.99,,2013-03-14 03:12:00,
2013-03-13 20:20:00,64.0,-99.9,-100.00,West,279,6.0,10.0,-999,-99.99,,,-99.99,,2013-03-14 03:20:00,
2013-03-13 20:53:00,65.0,-99.9,-100.00,West,276,7.0,11.0,-999,-99.99,,,-99.99,,2013-03-14 03:53:00,
2013-03-13 21:00:00,62.0,-99.9,-100.00,West,279,8.0,8.0,-999,-99.99,,,-99.99,,2013-03-14 04:00:00,
2013-03-13 21:12:00,64.0,-99.9,-100.00,West,279,6.0,10.0,-999,-99.99,,,-99.99,,2013-03-14 04:12:00,
2013-03-13 21:33:00,62.0,-99.9,-100.00,West,279,8.0,8.0,-999,-99.99,,,-99.99,,2013-03-14 04:33:00,
2013-03-13 21:42:00,62.0,-99.9,-100.00,West,279,8.0,8.0,-999,-99.99,,,-99.99,,2013-03-14 04:42:00,
2013-03-13 21:50:00,62.0,-99.9,-100.00,WNW,286,7.0,12.0,-999,-99.99,,,-99.99,,2013-03-14 04:50:00,
2013-03-13 21:53:00,62.0,-99.9,-100.00,West,279,8.0,8.0,-999,-99.99,,,-99.99,,2013-03-14 04:53:00,
2013-03-13 22:33:00,62.0,-99.9,-100.00,WNW,286,7.0,12.0,-999,-99.99,,,-99.99,,2013-03-14 05:33:00,
2013-03-13 22:43:00,62.0,-99.9,-100.00,WNW,286,7.0,12.0,-999,-99.99,,,-99.99,,2013-03-14 05:43:00,
2013-03-13 23:50:00,58.0,-99.9,-100.00,WNW,285,5.0,12.0,-999,-99.99,,,-99.99,,2013-03-14 06:50:00,